EW9935 Weather Reports


time (UTC)temp
C
wind
direction
speed
KPH
gust
KPH
rain 1hr
cm
rain 24hr
cm
rain mn
cm
humidity
%
barometer
mb
20260506111502 12 360 0.0 3.2 0.00 0.00 0.00 100 1016.0
20260506110103 12 360 0.0 3.2 0.00 0.00 0.00 100 1015.8
20260506104559 12 360 0.0 8.0 0.00 0.00 0.00 100 1015.5
20260506103058 12 360 0.0 8.0 0.00 0.00 0.00 100 1015.3
20260506101559 12 360 1.6 8.0 0.00 0.00 0.00 100 1015.1
20260506100104 12 206 0.0 3.2 0.00 0.00 0.00 100 1015.0
20260506094550 12 360 0.0 4.8 0.00 0.00 0.00 100 1014.9
20260506093048 12 360 0.0 4.8 0.00 0.00 0.00 100 1014.8
20260506091542 12 360 1.6 6.4 0.00 0.00 0.00 100 1014.7
20260506090040 12 360 0.0 4.8 0.00 0.00 0.00 100 1014.7
20260506084559 12 360 0.0 4.8 0.00 0.00 0.00 100 1014.7
20260506083036 13 360 0.0 6.4 0.00 0.00 0.00 100 1014.6
20260506081541 13 360 0.0 4.8 0.00 0.00 0.00 100 1014.6
20260506073037 13 360 0.0 3.2 0.00 0.00 0.00 100 1014.2
20260506071525 13 360 0.0 1.6 0.00 0.00 0.00 100 1014.2
20260506061550 14 360 0.0 3.2 0.00 0.00 0.00 100 1013.7
20260506044636 15 360 0.0 3.2 0.00 0.00 0.00 98 1013.3
20260506043042 15 360 0.0 3.2 0.00 0.00 0.00 97 1013.1
20260506041551 15 360 0.0 6.4 0.00 0.00 0.00 97 1013.0
20260506040040 15 360 0.0 4.8 0.00 0.00 0.00 97 1012.9
20260506034602 15 360 0.0 4.8 0.00 0.00 0.00 97 1012.7
20260506033037 15 360 0.0 8.0 0.00 0.00 0.00 97 1012.7
20260506031540 15 360 0.0 6.4 0.00 0.00 0.00 97 1012.5
20260506030038 15 360 0.0 8.0 0.00 0.00 0.00 97 1012.3
20260506024507 15 360 0.0 9.7 0.00 0.00 0.00 97 1012.3
20260506023006 15 360 1.6 16.1 0.00 0.00 0.00 96 1012.5
20260506021502 16 360 0.0 4.8 0.00 0.00 0.00 94 1012.5
20260506020002 16 360 1.6 14.5 0.00 0.00 0.00 96 1012.5
20260506014601 17 360 0.0 8.0 0.00 0.00 0.00 95 1012.5
20260506013100 18 360 1.6 8.0 0.00 0.00 0.00 90 1012.5
20260506011620 17 360 1.6 17.7 0.00 0.00 0.00 92 1012.5
20260506004624 17 360 1.6 17.7 0.00 0.00 0.00 93 1012.5
20260506003109 18 360 1.6 8.0 0.00 0.00 0.00 90 1012.5
20260506001555 18 360 1.6 6.4 0.00 0.00 0.00 89 1012.6
20260506000050 17 172 1.6 20.9 0.00 0.00 0.00 93 1012.8
20260505234611 18 360 1.6 19.3 0.00 0.00 0.00 91 1012.9
20260505233048 17 360 0.0 17.7 0.00 0.00 0.00 94 1013.0
20260505231543 17 145 1.6 16.1 0.00 0.00 0.00 92 1013.2
20260505230044 17 360 1.6 16.1 0.00 0.00 0.00 94 1013.2
20260505224542 17 219 1.6 24.1 0.00 0.00 0.00 93 1013.4
20260505223039 17 360 3.2 20.9 0.00 0.00 0.00 93 1013.5
20260505221537 16 360 1.6 19.3 0.00 0.00 0.00 96 1013.6
20260505220054 17 211 4.8 25.7 0.00 0.00 0.00 92 1013.6
20260505214540 16 360 0.0 25.7 0.00 0.00 0.00 95 1013.6
20260505213036 17 360 0.0 12.9 0.00 0.00 0.00 93 1013.7
20260505211505 16 360 4.8 27.4 0.00 0.00 0.00 95 1013.9
20260505210005 17 360 0.0 20.9 0.00 0.00 0.00 94 1013.9
20260505204502 16 360 4.8 20.9 0.00 0.00 0.00 94 1014.0
20260505203002 16 360 4.8 27.4 0.00 0.00 0.00 95 1014.1
20260505201605 16 360 3.2 24.1 0.00 0.00 0.00 94 1014.0
20260505200104 18 360 0.0 22.5 0.00 0.00 0.00 92 1014.1
20260505194556 16 360 0.0 22.5 0.00 0.00 0.00 96 1014.1
20260505193056 16 220 1.6 22.5 0.00 0.00 0.00 97 1014.1
20260505191557 15 360 1.6 19.3 0.00 0.00 0.00 98 1014.1
20260505190049 16 360 0.0 12.9 0.00 0.00 0.00 97 1014.1
20260505184545 16 360 0.0 12.9 0.00 0.00 0.00 98 1014.1
20260505183044 16 360 0.0 9.7 0.00 0.00 0.00 99 1014.1
20260505181539 15 360 0.0 14.5 0.00 0.00 0.00 100 1014.1
20260505180048 15 360 0.0 9.7 0.00 0.00 0.00 100 1014.0
20260505174540 15 360 0.0 6.4 0.00 0.00 0.00 100 1014.0
20260505173035 15 360 0.0 6.4 0.00 0.00 0.00 100 1014.0
20260505171534 14 360 0.0 9.7 0.00 0.00 0.00 100 1014.0
20260505170032 14 230 0.0 3.2 0.00 0.00 0.00 100 1013.9
20260505164528 14 360 0.0 8.0 0.00 0.00 0.00 100 1013.9
20260505163026 14 226 0.0 6.4 0.00 0.00 0.00 100 1013.9
20260505161525 15 360 0.0 6.4 0.00 0.00 0.00 100 1013.8
20260505153023 14 360 0.0 1.6 0.00 0.00 0.00 100 1013.5
20260505151517 14 360 0.0 3.2 0.00 0.00 0.00 100 1013.4
20260505124555 13 360 0.0 4.8 0.00 0.00 0.00 100 1011.8
20260505123041 13 360 0.0 6.4 0.00 0.00 0.00 100 1011.6
20260505121521 13 360 0.0 3.2 0.00 0.00 0.00 100 1011.3
20260505120011 13 360 0.0 6.4 0.00 0.00 0.00 100 1011.2
20260505114509 13 360 0.0 3.2 0.00 0.00 0.00 100 1011.0
20260505113007 13 360 0.0 1.6 0.00 0.00 0.00 100 1010.9